Location: Boiro
(42.6475°N, 8.8834°W)
Time: 00:45:31
(UTC+01:00)

Explorer 7 - Pass Details

Date: 06 December 2021
Orbit: 483 x 674 km, 50.3° (Epoch: 23 January)

Event Time Altitude Azimuth Distance (km) Brightness Sun altitude
Rises 04:39:02 0° 186° (S) 2,913 - -45.5°
Reaches altitude 10° 04:42:28 10° 160° (SSE) 1,968 - -44.9°
Maximum altitude 04:44:39 13° 131° (SE) 1,723 - -44.5°
Drops below altitude 10° 04:46:48 10° 101° (ESE) 1,915 - -44.1°
Exits shadow 04:48:53 - 82° (E) 2,417 10.8 -43.7°
Sets 04:50:03 0° 75° (ENE) 2,771 11.2 -43.5°
